sat.trackr.live / text

‹ back to catalog

ONEWEB-0412

NORAD 50489 · 2021-132W

PAYLOAD ACTIVE UNKNOWN

§ Identity

Operator
Country
UK
Launch date
2021-12-27
Launch site
TYMSC
Launch vehicle
Mass (kg)
RCS (m²)

Purposes: comms

External: N2YO · Heavens-Above · Gunter

§ Orbital elements

Epoch: 2026-09-19T22:48:43.415136Z

Period
109.20 min
Inclination
87.9161°
Eccentricity
0.0002242
Mean motion
13.18686280 rev/d
Perigee alt
1,188.0 km
Apogee alt
1,191.4 km
Semi-major
7,567.9 km
B*
-1.0357e-4
RAAN
316.6277°
Arg perigee
91.2259°
Mean anomaly
268.9130°
Rev number
23,414

§ Raw data

ONEWEB-04121 50489U 21132W   26262.95050249 -.00000028  00000+0 -10357-3 0  99972 50489  87.9161 316.6277 0002242  91.2259 268.9130 13.18686280234146

JSON: /api/v1/satellites/50489 · /tle

For live sub-satellite position, see the globe view (requires WebGL).

§ Visibility from observer

Set your observer location to see the next 7 days of passes ≥ 10°. The values pass through the URL so the page stays shareable.

No JS? Fill the form by hand. The geolocation button needs JavaScript.